sat.trackr.live / text

‹ back to catalog

STARLINK-35229

NORAD 65600 · 2025-207J

PAYLOAD ACTIVE UNKNOWN

§ Identity

Operator
Country
US
Launch date
2025-09-13
Launch site
AFWTR
Launch vehicle
Mass (kg)
RCS (m²)

Purposes: comms

External: N2YO · Heavens-Above · Gunter

§ Orbital elements

Epoch: 2026-05-25T03:43:39.978048Z

Period
95.64 min
Inclination
97.4466°
Eccentricity
0.0001538
Mean motion
15.05658350 rev/d
Perigee alt
548.4 km
Apogee alt
550.6 km
Semi-major
6,927.6 km
B*
2.5864e-4
RAAN
213.6101°
Arg perigee
159.8742°
Mean anomaly
200.2546°
Rev number
3,976

§ Raw data

STARLINK-352291 65600U 25207J   26145.15532382  .00003676  00000+0  25864-3 0  99992 65600  97.4466 213.6101 0001538 159.8742 200.2546 15.05658350 39764

JSON: /api/v1/satellites/65600 · /tle

For live sub-satellite position, see the globe view (requires WebGL).

§ Visibility from observer

Set your observer location to see the next 7 days of passes ≥ 10°. The values pass through the URL so the page stays shareable.

No JS? Fill the form by hand. The geolocation button needs JavaScript.